Location: Neu-Ulm
(48.3873°N, 10.0192°E)
Time: 15:08:45
(UTC+01:00)

ISS - Pass Details

Date: 13 November 2017
Orbit: 402 x 407 km, 51.6° (Epoch: 21 November)

Event Time Altitude Azimuth Distance (km) Brightness Sun altitude
Exits shadow 06:35:13 12° 281° (W) 1,367 -1.8 -8.4°
Maximum altitude 06:38:02 38° 213° (SSW) 630 -3.0 -8.0°
Drops below altitude 10° 06:41:05 10° 143° (SE) 1,450 -0.1 -7.5°
Sets 06:43:14 0° 135° (SE) 2,306 1.3 -7.1°
